UAL546 KBWI-KIAD

Flight info

Callsign UAL546
Flight time N/A
Altitude 16000
Route HAMRR T358 MRB
Aircraft A20N/M-SDE2E3FGHIRWXY/LB1

Departure

Time 2026-05-04 20:43
Airport Baltimore/Washington International Thurgood Marshall Airport (KBWI)

Arrival

Time N/A
Airport Washington Dulles International Airport (KIAD)
Time Latitude Longitude Altitude Speed Heading
2026-05-04 20:20 39.18335 -76.66765 165 ft 0 kts 160°
2026-05-04 20:34 39.18343 -76.66768 165 ft 8 kts 160°
2026-05-04 20:35 39.18378 -76.66784 166 ft 6 kts 160°
2026-05-04 20:35 39.18403 -76.66797 167 ft 6 kts 114°
2026-05-04 20:35 39.18406 -76.66808 167 ft 0 kts 67°
2026-05-04 20:37 39.18409 -76.66798 167 ft 5 kts 67°
2026-05-04 20:37 39.18448 -76.66720 165 ft 6 kts 52°
2026-05-04 20:37 39.18482 -76.66662 163 ft 12 kts 54°
2026-05-04 20:38 39.18543 -76.66544 156 ft 20 kts 51°
2026-05-04 20:38 39.18585 -76.66434 148 ft 4 kts 132°
2026-05-04 20:38 39.18552 -76.66407 148 ft 8 kts 147°
2026-05-04 20:38 39.18495 -76.66358 148 ft 13 kts 139°
2026-05-04 20:39 39.18401 -76.66261 146 ft 21 kts 144°
2026-05-04 20:39 39.18271 -76.66150 145 ft 24 kts 148°
2026-05-04 20:39 39.18138 -76.66012 142 ft 26 kts 144°
2026-05-04 20:39 39.18027 -76.66001 144 ft 18 kts 224°
2026-05-04 20:40 39.17969 -76.66027 147 ft 4 kts 127°
2026-05-04 20:40 39.17917 -76.65952 142 ft 17 kts 146°
2026-05-04 20:40 39.17801 -76.65859 140 ft 22 kts 150°
2026-05-04 20:40 39.17667 -76.65756 143 ft 22 kts 148°
2026-05-04 20:41 39.17536 -76.65654 149 ft 20 kts 165°
2026-05-04 20:41 39.17429 -76.65641 151 ft 16 kts 132°
2026-05-04 20:41 39.17365 -76.65536 153 ft 15 kts 161°
2026-05-04 20:41 39.17280 -76.65557 152 ft 9 kts 245°
2026-05-04 20:42 39.17282 -76.65607 150 ft 0 kts 276°
2026-05-04 20:42 39.17297 -76.65993 146 ft 92 kts 273°
2026-05-04 20:42 39.17377 -76.67169 152 ft 167 kts 274°
2026-05-04 20:43 39.17456 -76.68782 834 ft 183 kts 270°
2026-05-04 20:43 39.17547 -76.70458 1876 ft 191 kts 273°
2026-05-04 20:43 39.17725 -76.72190 2901 ft 200 kts 278°
2026-05-04 20:43 39.18024 -76.74060 3656 ft 226 kts 280°
2026-05-04 20:44 39.18366 -76.76180 4000 ft 254 kts 274°
2026-05-04 20:44 39.18503 -76.78522 3999 ft 266 kts 271°
2026-05-04 20:44 39.18608 -76.80869 4033 ft 259 kts 271°
2026-05-04 20:44 39.18716 -76.83171 4011 ft 256 kts 271°
2026-05-04 20:45 39.18824 -76.85453 4024 ft 255 kts 271°
2026-05-04 20:45 39.18939 -76.87730 4024 ft 255 kts 271°
2026-05-04 20:45 39.19045 -76.90021 4032 ft 256 kts 271°
2026-05-04 20:45 39.19169 -76.92307 4027 ft 254 kts 271°
2026-05-04 20:46 39.19293 -76.94581 4032 ft 256 kts 271°
2026-05-04 20:46 39.19431 -76.96881 4032 ft 256 kts 271°
2026-05-04 20:46 39.19570 -76.99159 4020 ft 254 kts 271°
2026-05-04 20:46 39.19689 -77.01314 4030 ft 255 kts 271°
2026-05-04 20:47 39.19819 -77.03608 4034 ft 256 kts 271°
2026-05-04 20:47 39.19957 -77.05897 4023 ft 255 kts 271°